Location: Black Creek
(40.9000°S, 175.5500°E)
Time: 00:08:21
(UTC+00:00)

Meteor 1-24 Rocket - Pass Details

Date: 11 November 2024
Orbit: 789 x 926 km, 81.3° (Epoch: 03 December)

Event Time Altitude Azimuth Distance (km) Brightness Sun altitude
Rises 14:10:08 0° 179° (S) 3,604 7.9 -24.3°
Reaches altitude 10° 14:13:07 10° 166° (SSE) 2,643 7.2 -24.0°
Maximum altitude 14:18:05 26° 111° (ESE) 1,724 5.8 -23.5°
Drops below altitude 10° 14:22:54 10° 55° (NE) 2,559 6.2 -22.9°
Sets 14:25:43 0° 43° (NE) 3,466 6.8 -22.6°
